CW3094 Weather Reports


time (UTC)temp
C
wind
direction
speed
KPH
gust
KPH
rain 1hr
cm
rain 24hr
cm
rain mn
cm
humidity
%
barometer
mb
20260510190404 20 294 6.4 19.3 0.00 0.89 0.00 62 1011.2
20260510185904 20 312 8.0 14.5 0.00 0.89 0.00 60 1011.3
20260510184404 20 274 8.0 14.5 0.00 0.89 0.00 59 1011.4
20260510183404 20 300 8.0 12.9 0.00 0.89 0.00 62 1011.4
20260510182904 20 239 8.0 14.5 0.00 0.89 0.00 62 1011.5
20260510181904 20 261 11.3 24.1 0.00 0.89 0.00 62 1011.4
20260510180904 20 281 9.7 24.1 0.00 0.89 0.00 61 1011.4
20260510175904 20 252 4.8 12.9 0.00 0.89 0.00 62 1011.4
20260510174403 19 293 3.2 11.3 0.00 0.89 0.00 64 1011.5
20260510173903 19 285 8.0 11.3 0.00 0.89 0.00 65 1011.4
20260510173404 19 300 4.8 9.7 0.00 0.89 0.00 66 1011.4
20260510172903 19 225 4.8 14.5 0.00 0.89 0.00 65 1011.6
20260510172404 18 252 6.4 12.9 0.00 0.89 0.00 65 1011.6
20260510171904 18 303 6.4 11.3 0.00 0.89 0.00 66 1011.5
20260510171404 19 287 4.8 8.0 0.00 0.89 0.00 64 1011.6
20260510170904 19 205 4.8 14.5 0.00 0.91 0.00 64 1011.7
20260510165904 20 257 8.0 12.9 0.00 0.91 0.00 66 1011.6
20260510165404 20 254 8.0 16.1 0.00 0.91 0.00 67 1011.6
20260510164904 19 168 4.8 14.5 0.00 0.91 0.00 66 1011.6
20260510164404 19 302 8.0 19.3 0.00 0.91 0.00 64 1011.7
20260510163904 19 245 6.4 12.9 0.00 0.91 0.00 66 1011.8
20260510162904 18 312 8.0 14.5 0.00 0.91 0.00 67 1011.9
20260510162404 18 271 9.7 14.5 0.00 0.91 0.00 68 1012.0
20260510161904 18 252 4.8 9.7 0.00 0.91 0.00 72 1012.0
20260510161404 18 311 4.8 9.7 0.00 0.94 0.00 72 1012.0
20260510160904 18 275 1.6 12.9 0.00 0.94 0.00 73 1012.1
20260510160404 18 194 3.2 9.7 0.00 0.94 0.00 72 1011.9
20260510155404 18 55 6.4 11.3 0.00 0.94 0.00 73 1012.0
20260510154904 18 213 4.8 11.3 0.00 0.94 0.00 77 1012.1
20260510154404 17 212 4.8 9.7 0.00 0.94 0.00 80 1012.1
20260510153904 17 221 4.8 11.3 0.00 0.94 0.00 78 1012.2
20260510153404 17 269 3.2 8.0 0.00 0.94 0.00 79 1012.3
20260510151904 17 306 6.4 11.3 0.00 0.94 0.00 81 1012.4
20260510151404 16 256 3.2 12.9 0.00 0.94 0.00 80 1012.4
20260510150904 16 268 4.8 11.3 0.00 0.94 0.00 82 1012.3
20260510150404 16 198 4.8 9.7 0.00 0.94 0.00 82 1012.4
20260510145904 15 265 6.4 12.9 0.00 0.94 0.00 86 1012.4
20260510145404 15 278 3.2 8.0 0.00 0.94 0.00 84 1012.2
20260510144904 15 276 3.2 9.7 0.00 0.94 0.00 83 1012.2
20260510143404 15 254 6.4 11.3 0.00 0.94 0.00 84 1012.3
20260510142904 15 251 6.4 11.3 0.00 0.94 0.00 83 1012.2
20260510142404 15 239 8.0 11.3 0.00 0.94 0.00 86 1012.3
20260510141405 14 253 6.4 9.7 0.00 0.94 0.00 89 1012.4
20260510140904 14 237 4.8 9.7 0.00 0.94 0.00 89 1012.4
20260510140405 13 240 6.4 11.3 0.00 0.94 0.00 90 1012.3
20260510135404 13 229 3.2 8.0 0.00 0.94 0.00 95 1012.3
20260510134904 13 237 3.2 8.0 0.00 0.94 0.00 94 1012.3
20260510133906 12 242 4.8 8.0 0.00 0.94 0.00 94 1012.3
20260510132904 12 186 3.2 4.8 0.00 0.94 0.00 96 1012.2
20260510132405 12 193 1.6 4.8 0.00 0.94 0.00 97 1012.2
20260510131905 12 232 0.0 0.0 0.00 0.94 0.00 96 1012.3
20260510131404 11 232 0.0 1.6 0.00 0.94 0.00 97 1012.2
20260510130905 11 193 1.6 3.2 0.00 0.94 0.00 97 1012.3
20260510130404 11 231 0.0 3.2 0.00 0.94 0.00 97 1012.4
20260510125904 11 238 1.6 3.2 0.00 0.94 0.00 97 1012.3
20260510125404 11 209 0.0 1.6 0.00 0.94 0.00 97 1012.1
20260510124905 11 210 0.0 0.0 0.00 0.94 0.00 97 1012.0
20260510124404 11 210 0.0 0.0 0.00 0.94 0.00 98 1012.0
20260510123404 11 210 0.0 0.0 0.00 0.94 0.00 98 1012.0
20260510122405 11 0 0.0 0.0 0.00 0.94 0.00 98 1011.9
20260510121904 11 0 0.0 0.0 0.00 0.94 0.00 98 1012.0
20260510120904 11 0 0.0 1.6 0.00 0.94 0.00 98 1011.9
20260510120404 10 31 0.0 1.6 0.00 0.94 0.00 98 1011.9
20260510115905 10 280 0.0 0.0 0.00 0.94 0.00 98 1011.9
20260510115404 10 280 0.0 0.0 0.00 0.94 0.00 98 1011.9
20260510114904 10 280 0.0 0.0 0.00 0.94 0.00 98 1011.9
20260510114406 10 280 0.0 1.6 0.00 0.97 0.00 98 1011.9
20260510113909 10 285 0.0 1.6 0.00 0.97 0.00 98 1011.8
20260510113404 10 301 0.0 1.6 0.00 0.97 0.00 98 1011.8
20260510112904 10 198 0.0 0.0 0.00 0.97 0.00 98 1011.6
20260510111904 10 198 0.0 0.0 0.00 0.97 0.00 98 1011.6
20260510111404 10 198 0.0 0.0 0.00 0.97 0.00 98 1011.5
20260510110905 10 198 0.0 1.6 0.00 0.97 0.00 98 1011.6
20260510110405 10 235 0.0 1.6 0.00 0.97 0.00 98 1011.5
20260510105404 10 243 0.0 3.2 0.00 0.97 0.00 98 1011.3
20260510103905 10 267 0.0 1.6 0.00 0.97 0.00 98 1011.3
20260510102904 10 241 0.0 0.0 0.00 0.99 0.00 98 1011.2
20260510102404 10 241 0.0 0.0 0.00 0.99 0.00 98 1011.2
20260510101904 10 241 0.0 1.6 0.00 0.99 0.00 98 1011.0
20260510100904 10 215 1.6 4.8 0.00 1.02 0.00 98 1011.1
20260510095905 10 249 3.2 4.8 0.00 1.02 0.00 98 1010.9
20260510094904 10 215 3.2 8.0 0.00 1.04 0.00 98 1010.5
20260510094404 10 209 3.2 8.0 0.00 1.04 0.00 98 1010.5
20260510093904 10 260 1.6 4.8 0.00 1.04 0.00 98 1010.5
20260510093405 10 179 0.0 1.6 0.00 1.04 0.00 98 1010.7
20260510092404 10 247 1.6 4.8 0.00 1.04 0.00 98 1011.0
20260510091904 10 244 1.6 3.2 0.00 1.07 0.00 98 1010.8
20260510091405 10 222 1.6 3.2 0.00 1.07 0.00 98 1010.9
20260510090905 10 233 1.6 1.6 0.00 1.07 0.00 98 1011.0
20260510090404 10 271 3.2 4.8 0.00 1.09 0.00 98 1011.0
20260510085905 10 247 1.6 4.8 0.00 1.09 0.00 98 1010.8
20260510085405 10 233 1.6 3.2 0.00 1.12 0.00 98 1011.0
20260510084905 10 247 1.6 3.2 0.00 1.12 0.00 98 1011.1
20260510084404 10 243 1.6 3.2 0.00 1.12 0.00 98 1011.1
20260510083404 10 269 3.2 11.3 0.00 1.14 0.00 98 1011.1
20260510082904 10 285 3.2 8.0 0.00 1.17 0.00 98 1011.1
20260510082405 10 296 3.2 4.8 0.00 1.17 0.00 98 1011.0
20260510081904 10 254 0.0 4.8 0.00 1.19 0.00 98 1011.0
20260510081404 10 246 0.0 1.6 0.00 1.19 0.00 98 1011.0
20260510080904 10 269 0.0 1.6 0.00 1.22 0.00 98 1011.1
20260510075904 10 232 0.0 4.8 0.00 1.22 0.00 98 1011.0
20260510075404 10 239 0.0 3.2 0.00 1.22 0.00 98 1011.2
20260510074904 10 247 1.6 3.2 0.00 1.22 0.00 98 1011.1
20260510074404 10 292 1.6 3.2 0.00 1.22 0.00 98 1011.1
20260510073404 10 296 3.2 9.7 0.00 1.22 0.00 98 1011.0
20260510072904 10 220 0.0 1.6 0.00 1.22 0.00 98 1010.9
20260510070905 10 223 0.0 1.6 0.00 1.22 0.00 98 1010.8
20260510070405 10 213 0.0 1.6 0.00 1.22 0.00 98 1010.7
20260510065905 10 222 1.6 3.2 0.00 1.22 0.00 98 1010.8
20260510065404 10 262 1.6 3.2 0.00 1.22 0.00 98 1010.9
20260510064904 10 220 0.0 0.0 0.00 1.22 0.00 98 1010.8
20260510064405 10 220 0.0 0.0 0.00 1.22 0.00 98 1010.8
20260510063405 10 220 0.0 0.0 0.00 1.22 0.00 98 1010.9
20260510061905 10 220 0.0 0.0 0.00 1.22 0.00 98 1010.7
20260510061405 10 220 0.0 0.0 0.00 1.22 0.00 98 1010.7
20260510060905 10 220 0.0 0.0 0.00 1.22 0.00 98 1010.5
20260510055405 10 220 0.0 0.0 0.00 1.22 0.00 98 1010.4
20260510054905 10 220 0.0 0.0 0.00 1.22 0.00 98 1010.4
20260510054405 10 220 0.0 0.0 0.00 1.22 0.00 98 1010.4
20260510053904 10 220 0.0 0.0 0.00 1.22 0.00 98 1010.5
20260510052404 10 220 0.0 0.0 0.00 1.22 0.00 98 1010.5
20260510051904 10 220 0.0 0.0 0.00 1.22 0.00 98 1010.5
20260510051404 10 220 0.0 0.0 0.00 1.22 0.00 98 1010.7
20260510050904 10 220 0.0 0.0 0.00 1.22 0.00 98 1010.8
20260510045855 10 220 0.0 0.0 0.00 1.22 0.00 97 1010.7
20260510045355 10 220 0.0 0.0 0.00 1.22 0.00 97 1010.7
20260510044855 10 220 0.0 0.0 0.00 1.22 0.00 97 1010.7
20260510044355 10 220 0.0 0.0 0.00 1.22 0.00 97 1010.5
20260510043855 10 220 0.0 0.0 0.00 1.22 0.00 97 1010.7
20260510043355 10 220 0.0 0.0 0.00 1.22 0.00 97 1010.7
20260510042355 10 220 0.0 0.0 0.00 1.22 0.00 97 1010.5
20260510041855 10 220 0.0 0.0 0.00 1.22 0.00 97 1010.4
20260510041355 10 220 0.0 0.0 0.00 1.22 0.00 97 1010.5
20260510040855 10 220 0.0 0.0 0.00 1.22 0.00 97 1010.5
20260510040406 10 220 0.0 0.0 0.00 1.22 0.00 97 1010.5
20260510035855 10 220 0.0 0.0 0.00 1.22 1.22 97 1010.5
20260510035355 10 220 0.0 0.0 0.00 1.22 1.22 97 1010.5
20260510034856 10 220 0.0 0.0 0.00 1.22 1.22 97 1010.7
20260510034355 10 220 0.0 0.0 0.00 1.22 1.22 97 1010.7
20260510033856 10 220 0.0 0.0 0.00 1.22 1.22 97 1010.7
20260510033355 10 220 0.0 0.0 0.00 1.22 1.22 97 1010.7
20260510032355 10 220 0.0 0.0 0.00 1.22 1.22 97 1010.7
20260510031855 10 220 0.0 0.0 0.00 1.22 1.22 97 1010.5
20260510030855 10 220 0.0 8.0 0.00 1.22 1.22 97 1010.9
20260510030356 10 220 1.6 3.2 0.00 1.22 1.22 97 1010.9
20260510025855 10 219 0.0 3.2 0.00 1.22 1.22 97 1010.9
20260510025355 10 246 0.0 0.0 0.00 1.22 1.22 97 1010.7
20260510024855 10 246 0.0 0.0 0.00 1.22 1.22 97 1010.5
20260510024356 10 246 0.0 0.0 0.00 1.22 1.22 97 1010.5
20260510023855 10 246 0.0 0.0 0.00 1.22 1.22 97 1010.4
20260510023356 10 246 0.0 0.0 0.00 1.22 1.22 97 1010.3
20260510022856 10 246 0.0 0.0 0.00 1.22 1.22 97 1010.4
20260510022355 10 246 0.0 1.6 0.00 1.22 1.22 97 1010.3
20260510021855 10 246 0.0 0.0 0.00 1.22 1.22 97 1010.4
20260510021356 10 246 0.0 1.6 0.00 1.22 1.22 97 1010.5
20260510020855 10 305 1.6 3.2 0.00 1.22 1.22 97 1010.5
20260510020355 11 136 0.0 1.6 0.00 1.22 1.22 97 1010.5
20260510015856 11 92 0.0 8.0 0.00 1.22 1.22 97 1010.7
20260510015356 11 79 0.0 0.0 0.00 1.22 1.22 97 1010.8
20260510014356 11 79 0.0 0.0 0.00 1.22 1.22 97 1010.8
20260510013855 11 79 0.0 0.0 0.00 1.22 1.22 97 1010.8
20260510013356 11 79 0.0 0.0 0.00 1.22 1.22 97 1010.8
20260510012855 11 79 0.0 0.0 0.00 1.22 1.22 97 1010.8
20260510012356 11 79 0.0 0.0 0.00 1.22 1.22 97 1010.8
20260510011855 11 79 0.0 0.0 0.00 1.22 1.22 97 1010.8
20260510011356 11 79 0.0 0.0 0.00 1.22 1.22 97 1010.7
20260510010357 11 193 0.0 0.0 0.00 1.22 1.22 97 1010.3
20260510005855 11 193 0.0 0.0 0.00 1.22 1.22 97 1010.2
20260510005355 11 216 0.0 1.6 0.00 1.22 1.22 97 1010.2
20260510004855 11 251 0.0 1.6 0.00 1.22 1.22 97 1010.1
20260510004356 11 24 0.0 0.0 0.00 1.22 1.22 97 1010.1
20260510003856 11 24 0.0 0.0 0.00 1.22 1.22 97 1010.0
20260510003356 11 24 0.0 0.0 0.00 1.22 1.22 97 1010.0
20260510002856 11 24 0.0 3.2 0.00 1.22 1.22 97 1010.0
20260510002356 11 236 0.0 3.2 0.00 1.22 1.22 97 1010.0
20260510001856 11 236 0.0 0.0 0.00 1.22 1.22 97 1010.0
20260510001355 11 236 1.6 4.8 0.00 1.22 1.22 97 1009.9
20260509235855 11 136 3.2 9.7 0.00 1.22 1.22 97 1009.7
20260509235355 11 48 1.6 9.7 0.00 1.22 1.22 97 1009.7
20260509234856 11 136 0.0 4.8 0.00 1.22 1.22 97 1009.7
20260509234355 11 333 1.6 4.8 0.00 1.22 1.22 97 1009.8
20260509233855 11 255 1.6 3.2 0.00 1.22 1.22 97 1009.8
20260509233355 11 183 1.6 9.7 0.00 1.22 1.22 97 1009.7
20260509232855 11 84 1.6 8.0 0.00 1.22 1.22 97 1009.7
20260509232356 11 256 1.6 8.0 0.03 1.22 1.22 97 1009.8
20260509231355 11 247 1.6 8.0 0.03 1.22 1.22 97 1009.9
20260509230855 11 213 1.6 8.0 0.03 1.22 1.22 97 1010.0
20260509230355 11 247 1.6 8.0 0.05 1.22 1.22 97 1010.0
20260509225856 11 168 1.6 3.2 0.08 1.22 1.22 97 1010.1
20260509225356 11 233 1.6 4.8 0.10 1.22 1.22 97 1010.1
20260509224856 11 21 1.6 4.8 0.13 1.22 1.22 96 1010.1
20260509224356 11 172 0.0 0.0 0.15 1.22 1.22 96 1010.1
20260509223855 11 172 0.0 0.0 0.15 1.22 1.22 96 1010.2
20260509223355 11 172 0.0 0.0 0.18 1.22 1.22 96 1010.2
20260509222855 11 172 0.0 4.8 0.20 1.22 1.22 96 1010.3
20260509222356 11 237 1.6 4.8 0.20 1.19 1.19 96 1010.3
20260509221856 11 248 1.6 4.8 0.20 1.19 1.19 96 1010.3
20260509221356 11 208 1.6 8.0 0.20 1.19 1.19 96 1010.3
20260509220355 11 221 1.6 4.8 0.20 1.17 1.17 96 1010.3
20260509215856 11 243 0.0 3.2 0.18 1.14 1.14 96 1010.4
20260509215356 11 236 3.2 4.8 0.15 1.12 1.12 96 1010.7
20260509214856 11 250 3.2 4.8 0.13 1.09 1.09 96 1010.5
20260509214356 11 231 1.6 3.2 0.13 1.07 1.07 96 1010.5
20260509213356 11 226 0.0 3.2 0.13 1.04 1.04 96 1010.5
20260509212856 11 243 0.0 1.6 0.10 1.02 1.02 96 1010.4
20260509212355 11 200 0.0 1.6 0.10 0.99 0.99 96 1010.3
20260509211856 11 282 0.0 0.0 0.13 0.99 0.99 96 1010.4
20260509211356 11 282 0.0 0.0 0.15 0.99 0.99 96 1010.4
20260509210856 11 282 0.0 0.0 0.20 0.99 0.99 96 1010.4
20260509210356 11 282 0.0 0.0 0.20 0.97 0.97 96 1010.5
20260509205855 11 282 0.0 0.0 0.25 0.97 0.97 96 1010.5
20260509205355 11 282 0.0 0.0 0.30 0.97 0.97 96 1010.5
20260509204855 11 282 0.0 0.0 0.33 0.97 0.97 96 1010.7
20260509204356 11 288 1.6 3.2 0.36 0.94 0.94 96 1010.8
20260509203856 11 241 0.0 0.0 0.41 0.94 0.94 96 1010.8
20260509203355 11 234 3.2 14.5 0.43 0.91 0.91 96 1010.8
20260509202856 11 273 3.2 14.5 0.46 0.91 0.91 96 1010.9
20260509202356 11 272 1.6 8.0 0.46 0.89 0.89 96 1010.9
20260509201856 11 254 3.2 8.0 0.48 0.86 0.86 96 1011.0
20260509201356 11 232 3.2 8.0 0.48 0.84 0.84 96 1011.0
20260509200856 11 242 1.6 8.0 0.43 0.79 0.79 96 1010.9
20260509200356 11 93 0.0 1.6 0.43 0.76 0.76 96 1010.9
20260509195855 11 216 0.0 0.0 0.38 0.71 0.71 96 1011.0
20260509195356 11 216 0.0 0.0 0.33 0.66 0.66 96 1011.0
20260509194855 11 216 0.0 0.0 0.30 0.64 0.64 96 1011.1
20260509194356 11 216 0.0 0.0 0.25 0.58 0.58 96 1011.1
20260509193356 11 95 0.0 0.0 0.15 0.48 0.48 96 1011.2
20260509192855 11 95 0.0 0.0 0.13 0.46 0.46 96 1011.2
20260509192356 11 95 0.0 0.0 0.10 0.43 0.43 95 1011.1
20260509191855 12 95 0.0 0.0 0.05 0.38 0.38 95 1011.1
20260509191355 12 95 0.0 0.0 0.03 0.36 0.36 95 1011.1
20260509190856 12 95 0.0 3.2 0.03 0.36 0.36 95 1011.0